This is the latest recevied weather packets stored in our database for station/object N0FDH. If no packets are shown the sender has not sent any weather packets the latest 10 day(s).
| Time | Temp. | Humidity | Pressure | Rain* | Wind** | Luminosity | Snow |
|---|---|---|---|---|---|---|---|
| 1777385383 | 6.67° C | 73% | 1011.6 hPa | 0 mm | - | 297 W/m² | - |
| 1777385080 | 6.67° C | 73% | 1011.7 hPa | 0 mm | - | 239 W/m² | - |
| 1777384776 | 6.67° C | 74% | 1012 hPa | 0 mm | - | 323 W/m² | - |
| 1777384472 | 6.11° C | 75% | 1011.7 hPa | 0 mm | - | 275 W/m² | - |
| 1777384167 | 6.11° C | 76% | 1011.7 hPa | 0 mm | - | 228 W/m² | - |
| 1777383863 | 6.11° C | 76% | 1011.7 hPa | 0 mm | - | 93 W/m² | - |
| 1777383560 | 6.11° C | 78% | 1011.7 hPa | 0 mm | - | 154 W/m² | - |
| 1777383256 | 5.56° C | 79% | 1011.5 hPa | 0 mm | - | 110 W/m² | - |
| 1777382953 | 5.56° C | 79% | 1011.6 hPa | 0 mm | - | 87 W/m² | - |
| 1777382648 | 5.56° C | 78% | 1011.4 hPa | 0 mm | - | 69 W/m² | - |
| 1777382344 | 5.56° C | 81% | 1011.3 hPa | 0 mm | - | 105 W/m² | - |
| 1777382040 | 5.56° C | 80% | 1011 hPa | 0 mm | - | 87 W/m² | - |
| 1777381736 | 5.56° C | 81% | 1010.9 hPa | 0 mm | - | 73 W/m² | - |
| 1777381431 | 5.56° C | 82% | 1010.7 hPa | 0 mm | - | 44 W/m² | - |
| 1777381127 | 5.56° C | 83% | 1010.5 hPa | 0 mm | - | 44 W/m² | - |
| 1777380824 | 5.56° C | 82% | 1010.2 hPa | 0 mm | - | 55 W/m² | - |
| 1777380522 | 5.56° C | 83% | 1010 hPa | 0 mm | - | 36 W/m² | - |
| 1777380218 | 5.56° C | 83% | 1010.1 hPa | 0 mm | - | 34 W/m² | - |
| 1777379914 | 5° C | 82% | 1010.4 hPa | 0 mm | - | 37 W/m² | - |
| 1777379610 | 5° C | 83% | 1010.3 hPa | 0 mm | - | 35 W/m² | - |
| 1777379307 | 5.56° C | 83% | 1010.1 hPa | 0 mm | - | 44 W/m² | - |
| 1777379006 | 5.56° C | 86% | 1010 hPa | 0 mm | - | 50 W/m² | - |
| 1777378702 | 5.56° C | 85% | 1009.8 hPa | 0 mm | - | 41 W/m² | - |
| 1777378399 | 5.56° C | 85% | 1009.9 hPa | 0 mm | - | 45 W/m² | - |
| 1777378093 | 5.56° C | 84% | 1009.6 hPa | 0 mm | - | 44 W/m² | - |
* Rain latest hour (hover to see other rain measurements)
** Current wind speed in m/s (hover to see current wind gust speed)